H1 CPF 2 NER 2022 8 14 9 226 01 glonass142 H2 2001801 9142 45358 2022 8 14 0 0 0 2022 8 17 23 45 0 900 1 1 0 0 0 1 H9 10 0 59805 0.00000 0 1467183.843 -12236893.170 -22318263.583 10 0 59805 900.00000 0 3681508.207 -10529930.157 -22926718.188 10 0 59805 1800.00000 0 6055045.374 -8964763.856 -23089335.272 10 0 59805 2700.00000 0 8530484.878 -7582331.221 -22803038.167 10 0 59805 3600.00000 0 11044313.936 -6412847.537 -22073481.693 10 0 59805 4500.00000 0 13529264.264 -5474694.966 -20914935.495 10 0 59805 5400.00000 0 15916926.767 -4773824.088 -19350000.190 10 0 59805 6300.00000 0 18140425.534 -4303691.967 -17409162.128 10 0 59805 7200.00000 0 20137040.041 -4045737.834 -15130195.694 10 0 59805 8100.00000 0 21850666.775 -3970374.836 -12557424.903 10 0 59805 9000.00000 0 23234018.131 -4038454.676 -9740858.715 10 0 59805 9900.00000 0 24250467.405 -4203142.212 -6735217.044 10 0 59805 10800.00000 0 24875463.547 -4412119.892 -3598866.470 10 0 59805 11700.00000 0 25097457.339 -4610028.131 -392686.428 10 0 59805 12600.00000 0 24918301.063 -4741037.948 2821111.845 10 0 59805 13500.00000 0 24353105.844 -4751446.748 5980190.643 10 0 59805 14400.00000 0 23429563.457 -4592187.291 9023291.934 10 0 59805 15300.00000 0 22186761.704 -4221143.714 11891420.942 10 0 59805 16200.00000 0 20673543.568 -3605176.732 14528984.449 10 0 59805 17100.00000 0 18946479.088 -2721772.381 16884862.210 10 0 59805 18000.00000 0 17067534.898 -1560244.589 18913391.182 10 0 59805 18900.00000 0 15101538.576 -122440.410 20575244.260 10 0 59805 19800.00000 0 13113543.211 1577082.525 21838187.268 10 0 59805 20700.00000 0 11166201.482 3511414.884 22677700.208 10 0 59805 21600.00000 0 9317257.879 5642177.297 23077451.402 10 0 59805 22500.00000 0 7617262.673 7920889.680 23029615.683 10 0 59805 23400.00000 0 6107602.051 10290772.868 22535030.592 10 0 59805 24300.00000 0 4818925.750 12688909.375 21603187.279 10 0 59805 25200.00000 0 3770037.105 15048675.043 20252055.749 10 0 59805 26100.00000 0 2967291.487 17302341.764 18507746.953 10 0 59805 27000.00000 0 2404527.968 19383744.061 16404017.256 10 0 59805 27900.00000 0 2063536.968 21230899.141 13981623.693 10 0 59805 28800.00000 0 1915044.234 22788471.345 11287541.501 10 0 59805 29700.00000 0 1920169.691 24009977.966 8374058.156 10 0 59805 30600.00000 0 2032299.584 24859643.710 5297760.841 10 0 59805 31500.00000 0 2199292.596 25313825.374 2118436.815 10 0 59805 32400.00000 0 2365926.129 25361946.238 -1102091.894 10 0 59805 33300.00000 0 2476478.466 25006900.142 -4301176.366 10 0 59805 34200.00000 0 2477336.416 24264907.646 -7416566.924 10 0 59805 35100.00000 0 2319516.739 23164829.948 -10387632.739 10 0 59805 36000.00000 0 1960993.151 21746969.307 -13156550.186 10 0 59805 36900.00000 0 1368728.976 20061406.586 -15669435.769 10 0 59805 37800.00000 0 520328.057 18165946.212 -17877400.793 10 0 59805 38700.00000 0 -594767.190 16123755.349 -19737506.697 10 0 59805 39600.00000 0 -1974582.244 14000797.014 -21213602.118 10 0 59805 40500.00000 0 -3604451.713 11863165.166 -22277025.419 10 0 59805 41400.00000 0 -5457402.894 9774433.684 -22907159.295 10 0 59805 42300.00000 0 -7495066.167 7793130.200 -23091827.073 10 0 59805 43200.00000 0 -9669074.674 5970440.075 -22827523.580 10 0 59805 44100.00000 0 -11922895.162 4348235.758 -22119476.687 10 0 59805 45000.00000 0 -14194013.800 2957512.920 -20981538.868 10 0 59805 45900.00000 0 -16416385.997 1817297.349 -19435911.353 10 0 59805 46800.00000 0 -18523048.310 934066.763 -17512706.568 10 0 59805 47700.00000 0 -20448783.637 301710.072 -15249357.631 10 0 59805 48600.00000 0 -22132728.779 -97975.996 -12689886.522 10 0 59805 49500.00000 0 -23520815.860 -294275.485 -9884045.235 10 0 59805 50400.00000 0 -24567945.910 -326071.110 -6886346.732 10 0 59805 51300.00000 0 -25239804.235 -239955.304 -3755004.637 10 0 59805 52200.00000 0 -25514242.137 -88015.227 -550802.348 10 0 59805 53100.00000 0 -25382167.702 74613.896 2664086.234 10 0 59805 54000.00000 0 -24847908.982 192323.091 5827301.384 10 0 59805 54900.00000 0 -23929034.923 211622.427 8877504.216 10 0 59805 55800.00000 0 -22655642.077 83642.543 11755561.907 10 0 59805 56700.00000 0 -21069137.362 -233560.912 14405688.741 10 0 59805 57600.00000 0 -19220567.969 -772997.192 16776521.272 10 0 59805 58500.00000 0 -17168568.230 -1557109.651 18822107.249 10 0 59805 59400.00000 0 -14977008.916 -2596593.145 20502789.902 10 0 59805 60300.00000 0 -12712446.424 -3889709.972 21785971.203 10 0 59805 61200.00000 0 -10441477.488 -5422133.827 22646740.037 10 0 59805 62100.00000 0 -8228108.588 -7167329.543 23068353.753 10 0 59805 63000.00000 0 -6131248.496 -9087454.187 23042564.167 10 0 59805 63900.00000 0 -4202427.317 -11134743.492 22569781.796 10 0 59805 64800.00000 0 -2483835.951 -13253327.559 21659074.935 10 0 59805 65700.00000 0 -1006766.733 -15381401.855 20328003.029 10 0 59805 66600.00000 0 209480.311 -17453664.473 18602286.722 10 0 59805 67500.00000 0 1158180.512 -19403919.327 16515319.944 10 0 59805 68400.00000 0 1845232.817 -21167737.488 14107532.332 10 0 59805 69300.00000 0 2288671.434 -22685065.919 11425613.272 10 0 59805 70200.00000 0 2517661.584 -23902674.492 8521611.716 10 0 59805 71100.00000 0 2571021.806 -24776338.409 5451928.506 10 0 59805 72000.00000 0 2495335.444 -25272663.747 2276220.577 10 0 59805 72900.00000 0 2342731.588 -25370478.569 -943761.625 10 0 59805 73800.00000 0 2168430.058 -25061730.119 -4145380.524 10 0 59805 74700.00000 0 2028155.278 -24351849.439 -7266337.258 10 0 59805 75600.00000 0 1975529.745 -23259567.269 -10245892.284 10 0 59805 76500.00000 0 2059558.839 -21816188.491 -13026055.932 10 0 59805 77400.00000 0 2322314.769 -20064355.370 -15552724.695 10 0 59805 78300.00000 0 2796919.105 -18056351.621 -17776740.350 10 0 59805 79200.00000 0 3505910.399 -15852018.730 -19654850.709 10 0 59805 80100.00000 0 4460066.967 -13516372.294 -21150552.935 10 0 59805 81000.00000 0 5657735.411 -11117018.610 -22234803.055 10 0 59805 81900.00000 0 7084693.954 -8721479.795 -22886578.101 10 0 59805 82800.00000 0 8714556.907 -6394539.367 -23093280.354 10 0 59805 83700.00000 0 10509703.772 -4195718.848 -22850976.429 10 0 59805 84600.00000 0 12422694.426 -2176990.100 -22164467.110 10 0 59805 85500.00000 0 14398111.330 -380818.020 -21047187.161 10 0 59806 0.00000 0 16374751.776 1161385.905 -19520937.667 10 0 59806 900.00000 0 18288079.713 2430336.898 -17615455.564 10 0 59806 1800.00000 0 20072832.145 3419431.852 -15367831.147 10 0 59806 2700.00000 0 21665674.796 4134767.375 -12821782.285 10 0 59806 3600.00000 0 23007793.531 4594619.893 -10026801.520 10 0 59806 4500.00000 0 24047314.309 4828412.314 -7037191.998 10 0 59806 5400.00000 0 24741450.462 4875212.206 -3911011.197 10 0 59806 6300.00000 0 25058287.664 4781826.210 -708943.044 10 0 59806 7200.00000 0 24978132.103 4600572.160 2506879.441 10 0 59806 8100.00000 0 24494365.740 4386823.860 5674078.047 10 0 59806 9000.00000 0 23613773.164 4196432.798 8731236.430 10 0 59806 9900.00000 0 22356326.631 4083136.005 11619086.869 10 0 59806 10800.00000 0 20754438.516 4096059.741 14281653.969 10 0 59806 11700.00000 0 18851712.424 4277424.327 16667333.536 10 0 59806 12600.00000 0 16701245.081 4660546.960 18729886.178 10 0 59806 13500.00000 0 14363549.423 5268226.690 20429327.136 10 0 59806 14400.00000 0 11904184.862 6111579.767 21732695.833 10 0 59806 15300.00000 0 9391192.596 7189374.770 22614690.963 10 0 59806 16200.00000 0 6892441.624 8487896.231 23058159.452 10 0 59806 17100.00000 0 4472994.648 9981343.582 23054430.255 10 0 59806 18000.00000 0 2192602.210 11632750.104 22603486.618 10 0 59806 18900.00000 0 103428.092 13395385.027 21713973.307 10 0 59806 19800.00000 0 -1751900.499 15214581.866 20403038.103 10 0 59806 20700.00000 0 -3341837.549 17029918.114 18696009.822 10 0 59806 21600.00000 0 -4646993.994 18777656.604 16625918.069 10 0 59806 22500.00000 0 -5660700.161 20393347.515 14232862.850 10 0 59806 23400.00000 0 -6389031.645 21814482.691 11563245.216 10 0 59806 24300.00000 0 -6850297.839 22983091.282 8668872.889 10 0 59806 25200.00000 0 -7074014.819 23848167.533 5605957.510 10 0 59806 26100.00000 0 -7099406.153 24367828.080 2434022.736 10 0 59806 27000.00000 0 -6973495.353 24511107.102 -785255.577 10 0 59806 27900.00000 0 -6748871.220 24259312.642 -3989254.175 10 0 59806 28800.00000 0 -6481221.454 23606885.826 -7115627.923 10 0 59806 29700.00000 0 -6226740.026 22561725.720 -10103531.304 10 0 59806 30600.00000 0 -6039519.283 21144965.243 -12894811.126 10 0 59806 31500.00000 0 -5969038.492 19390206.933 -15435146.122 10 0 59806 32400.00000 0 -6057856.373 17342250.332 -17675110.487 10 0 59806 33300.00000 0 -6339606.428 15055364.284 -19571140.045 10 0 59806 34200.00000 0 -6837380.739 12591176.704 -21086381.840 10 0 59806 35100.00000 0 -7562571.335 10016270.331 -22191410.633 10 0 59806 36000.00000 0 -8514218.589 7399585.115 -22864798.591 10 0 59806 36900.00000 0 -9678894.535 4809735.841 -23093527.478 10 0 59806 37800.00000 0 -11031126.320 2312356.681 -22873235.913 10 0 59806 38700.00000 0 -12534342.213 -32417.096 -22208297.494 10 0 59806 39600.00000 0 -14142300.571 -2172226.004 -21111728.805 10 0 59806 40500.00000 0 -15800941.895 -4064428.013 -19604929.627 10 0 59806 41400.00000 0 -17450586.452 -5677625.499 -17717260.732 10 0 59806 42300.00000 0 -19028385.353 -6992715.266 -15485467.771 10 0 59806 43200.00000 0 -20470922.440 -8003419.628 -12952962.617 10 0 59806 44100.00000 0 -21716858.030 -8716278.230 -10168976.217 10 0 59806 45000.00000 0 -22709503.683 -9150102.782 -7187599.556 10 0 59806 45900.00000 0 -23399220.172 -9334919.460 -4066731.455 10 0 59806 46800.00000 0 -23745538.136 -9310445.043 -866953.742 10 0 59806 47700.00000 0 -23718912.619 -9124162.366 2349644.183 10 0 59806 48600.00000 0 -23302038.010 -8829077.321 5520668.445 10 0 59806 49500.00000 0 -22490668.366 -8481252.855 8584628.107 10 0 59806 50400.00000 0 -21293908.840 -8137224.542 11482123.422 10 0 59806 51300.00000 0 -19733966.001 -7851407.043 14156992.125 10 0 59806 52200.00000 0 -17845367.339 -7673600.925 16557391.944 10 0 59806 53100.00000 0 -15673682.316 -7646704.841 18636798.795 10 0 59806 54000.00000 0 -13273797.785 -7804729.352 20354902.069 10 0 59806 54900.00000 0 -10707818.922 -8171195.919 21678380.427 10 0 59806 55800.00000 0 -8042682.106 -8757988.483 22581543.758 10 0 59806 56700.00000 0 -5347577.895 -9564706.254 23046829.540 10 0 59806 57600.00000 0 -2691289.849 -10578545.544 23065144.436 10 0 59806 58500.00000 0 -139558.494 -11774716.576 22636044.614 10 0 59806 59400.00000 0 2247421.396 -13117379.053 21767751.143 10 0 59806 60300.00000 0 4417267.427 -14561058.772 20476999.643 10 0 59806 61200.00000 0 6327346.764 -16052487.377 18788726.281 10 0 59806 62100.00000 0 7946304.033 -17532789.616 16735595.175 10 0 59806 63000.00000 0 9255116.814 -18939927.577 14357375.202 10 0 59806 63900.00000 0 10247634.929 -20211300.189 11700177.212 10 0 59806 64800.00000 0 10930581.277 -21286389.207 8815565.479 10 0 59806 65700.00000 0 11323014.393 -22109340.442 5759559.895 10 0 59806 66600.00000 0 11455275.552 -22631371.081 2591548.011 10 0 59806 67500.00000 0 11367465.194 -22812900.853 -626871.950 10 0 59806 68400.00000 0 11107513.504 -22625316.068 -3833094.224 10 0 59806 69300.00000 0 10728927.420 -22052290.872 -6964730.621 10 0 59806 70200.00000 0 10288310.311 -21090608.693 -9960832.847 10 0 59806 71100.00000 0 9842760.381 -19750448.056 -12763087.286 10 0 59806 72000.00000 0 9447259.076 -18055119.732 -15316957.858 10 0 59806 72900.00000 0 9152161.191 -16040265.537 -17572753.907 10 0 59806 73800.00000 0 9000893.900 -13752551.906 -19486601.708 10 0 59806 74700.00000 0 9027962.889 -11247912.858 -21021300.258 10 0 59806 75600.00000 0 9257350.477 -8589415.806 -22147044.711 10 0 59806 76500.00000 0 9701373.798 -5844839.385 -22842003.569 10 0 59806 77400.00000 0 10360051.409 -3084064.496 -23092738.801 10 0 59806 78300.00000 0 11221005.083 -376387.110 -22894461.298 10 0 59806 79200.00000 0 12259900.887 2212135.559 -22251117.293 10 0 59806 80100.00000 0 13441410.837 4621195.560 -21175304.617 10 0 59806 81000.00000 0 14720654.589 6798497.776 -19688020.961 10 0 59806 81900.00000 0 16045060.452 8701683.517 -17818249.357 10 0 59806 82800.00000 0 17356567.390 10299835.267 -15602389.295 10 0 59806 83700.00000 0 18594075.463 11574501.510 -13083544.662 10 0 59806 84600.00000 0 19696041.677 12520200.619 -10310682.466 10 0 59806 85500.00000 0 20603112.147 13144384.473 -7337678.859 10 0 59807 0.00000 0 21260679.910 13466865.221 -4222271.331 10 0 59807 900.00000 0 21621261.195 13518731.096 -1024935.855 10 0 59807 1800.00000 0 21646589.474 13340797.994 2192284.819 10 0 59807 2700.00000 0 21309340.512 12981663.913 5366984.479 10 0 59807 3600.00000 0 20594414.980 12495448.697 8437600.823 10 0 59807 4500.00000 0 19499725.160 11939315.273 11344605.120 10 0 59807 5400.00000 0 18036452.513 11370877.217 14031651.011 10 0 59807 6300.00000 0 16228765.018 10845602.042 16446660.616 10 0 59807 7200.00000 0 14113005.655 10414319.459 18542827.300 10 0 59807 8100.00000 0 11736385.290 10120939.324 20279516.419 10 0 59807 9000.00000 0 9155233.498 10000474.979 21623047.342 10 0 59807 9900.00000 0 6432879.199 10077454.862 22547342.272 10 0 59807 10800.00000 0 3637247.884 10364789.088 23034430.003 10 0 59807 11700.00000 0 838273.886 10863138.771 23074795.286 10 0 59807 12600.00000 0 -1894766.254 11560815.052 22667567.168 10 0 59807 13500.00000 0 -4495890.068 12434212.880 21820542.548 10 0 59807 14400.00000 0 -6904906.946 13448762.402 20550043.954 10 0 59807 15300.00000 0 -9069674.673 14560359.259 18880613.523 10 0 59807 16200.00000 0 -10948021.753 15717215.020 16844548.100 10 0 59807 17100.00000 0 -12509256.118 16862051.209 14481283.281 10 0 59807 18000.00000 0 -13735197.544 17934545.596 11836637.284 10 0 59807 18900.00000 0 -14620690.922 18873928.397 8961928.295 10 0 59807 19800.00000 0 -15173579.006 19621619.213 5912981.685 10 0 59807 20700.00000 0 -15414135.875 20123793.184 2749046.044 10 0 59807 21600.00000 0 -15373985.227 20333767.422 -468360.911 10 0 59807 22500.00000 0 -15094549.478 20214105.879 -3676653.787 10 0 59807 23400.00000 0 -14625095.692 19738352.462 -6813404.151 10 0 59807 24300.00000 0 -14020461.714 18892317.840 -9817563.663 10 0 59807 25200.00000 0 -13338559.600 17674864.168 -12630660.857 10 0 59807 26100.00000 0 -12637763.006 16098153.438 -15197947.200 10 0 59807 27000.00000 0 -11974290.076 14187347.885 -17469469.284 10 0 59807 27900.00000 0 -11399693.491 11979774.176 -19401045.633 10 0 59807 28800.00000 0 -10958564.530 9523585.948 -20955128.700 10 0 59807 29700.00000 0 -10686548.719 6875980.310 -22101535.208 10 0 59807 30600.00000 0 -10608757.069 4101042.647 -22818030.868 10 0 59807 31500.00000 0 -10738640.011 1267309.632 -23090758.413 10 0 59807 32400.00000 0 -11077371.264 -1554848.195 -22914501.251 10 0 59807 33300.00000 0 -11613767.288 -4295915.561 -22292778.160 10 0 59807 34200.00000 0 -12324745.243 -6889881.778 -21237767.788 10 0 59807 35100.00000 0 -13176299.722 -9276740.767 -19770064.950 10 0 59807 36000.00000 0 -14124956.711 -11404738.657 -17918273.823 10 0 59807 36900.00000 0 -15119643.165 -13232276.536 -15718446.293 10 0 59807 37800.00000 0 -16103893.212 -14729390.428 -13213376.548 10 0 59807 38700.00000 0 -17018297.875 -15878748.366 -10451765.720 10 0 59807 39600.00000 0 -17803094.974 -16676124.489 -7487272.997 10 0 59807 40500.00000 0 -18400790.033 -17130332.098 -4377471.697 10 0 59807 41400.00000 0 -18758697.764 -17262620.176 -1182730.661 10 0 59807 42300.00000 0 -18831297.008 -17105560.219 2034957.085 10 0 59807 43200.00000 0 -18582299.965 -16701471.621 5213175.617 10 0 59807 44100.00000 0 -17986348.554 -16100452.929 8290293.991 10 0 59807 45000.00000 0 -17030266.432 -15358102.709 11206657.256 10 0 59807 45900.00000 0 -15713813.885 -14533026.460 13905737.736 10 0 59807 46800.00000 0 -14049913.475 -13684234.775 16335224.633 10 0 59807 47700.00000 0 -12064336.521 -12868542.129 18448031.297 10 0 59807 48600.00000 0 -9794862.711 -12138075.441 20203201.341 10 0 59807 49500.00000 0 -7289946.893 -11537996.689 21566696.826 10 0 59807 50400.00000 0 -4606947.488 -11104534.788 22512053.907 10 0 59807 51300.00000 0 -1809988.780 -10863408.947 23020893.958 10 0 59807 52200.00000 0 1032455.595 -10828709.456 23083280.700 10 0 59807 53100.00000 0 3850159.125 -11002282.861 22697916.589 10 0 59807 54000.00000 0 6573812.655 -11373647.618 21872174.530 10 0 59807 54900.00000 0 9137658.977 -11920444.358 20621963.806 10 0 59807 55800.00000 0 11481983.492 -12609402.682 18971432.048 10 0 59807 56700.00000 0 13555358.387 -13397784.810 16952508.001 10 0 59807 57600.00000 0 15316547.579 -14235246.380 14604292.788 10 0 59807 58500.00000 0 16735993.340 -15066036.946 11972310.394 10 0 59807 59400.00000 0 17796822.696 -15831448.052 9107630.896 10 0 59807 60300.00000 0 18495331.526 -16472405.937 6065882.698 10 0 59807 61200.00000 0 18840925.975 -16932099.233 2906172.592 10 0 59807 62100.00000 0 18855523.755 -17158530.128 -310065.364 10 0 59807 63000.00000 0 18572440.667 -17106880.163 -3520269.515 10 0 59807 63900.00000 0 18034809.676 -16741589.421 -6661974.670 10 0 59807 64800.00000 0 17293599.835 -16038059.777 -9674035.898 10 0 59807 65700.00000 0 16405319.512 -14983908.705 -12497827.243 10 0 59807 66600.00000 0 15429501.871 -13579719.258 -15078390.888 10 0 59807 67500.00000 0 14426079.809 -11839253.294 -17365513.587 10 0 59807 68400.00000 0 13452762.155 -9789117.793 -19314708.725 10 0 59807 69300.00000 0 12562522.679 -7467897.454 -20888084.435 10 0 59807 70200.00000 0 11801308.385 -4924789.272 -22055080.839 10 0 59807 71100.00000 0 11206063.974 -2217795.733 -22793062.219 10 0 59807 72000.00000 0 10803155.678 588448.124 -23087752.969 10 0 59807 72900.00000 0 10607260.481 3425123.458 -22933509.428 10 0 59807 73800.00000 0 10620766.933 6221850.506 -22333422.874 10 0 59807 74700.00000 0 10833712.025 8909376.676 -21299252.293 10 0 59807 75600.00000 0 11224255.947 11422218.634 -19851188.739 10 0 59807 76500.00000 0 11759673.933 13701149.146 -18017456.263 10 0 59807 77400.00000 0 12397822.626 15695426.046 -15833757.517 10 0 59807 78300.00000 0 13089018.535 17364671.597 -13342574.991 10 0 59807 79200.00000 0 13778248.872 18680325.233 -10592341.606 10 0 59807 80100.00000 0 14407621.135 19626610.350 -7636496.921 10 0 59807 81000.00000 0 14918947.816 20200976.334 -4532447.400 10 0 59807 81900.00000 0 15256357.017 20413998.829 -1340451.009 10 0 59807 82800.00000 0 15368818.698 20288743.923 1877551.998 10 0 59807 83700.00000 0 15212479.919 19859624.312 5059139.346 10 0 59807 84600.00000 0 14752710.550 19170796.684 8142614.733 10 0 59807 85500.00000 0 13965773.109 18274168.553 11068200.119 10 0 59808 0.00000 0 12840046.373 17227099.109 13779189.151 10 0 59808 900.00000 0 11376750.243 16089890.406 16223041.198 10 0 59808 1800.00000 0 9590142.518 14923175.759 18352391.602 10 0 59808 2700.00000 0 7507176.483 13785312.894 20125964.164 10 0 59808 3600.00000 0 5166634.004 12729892.150 21509365.212 10 0 59808 4500.00000 0 2617768.538 11803463.125 22475746.065 10 0 59808 5400.00000 0 -81486.856 11043574.539 23006321.501 10 0 59808 6300.00000 0 -2866673.592 10477208.868 23090734.630 10 0 59808 7200.00000 0 -5669235.842 10119676.987 22727261.300 10 0 59808 8100.00000 0 -8419123.875 9974018.964 21922849.947 10 0 59808 9000.00000 0 -11047465.938 10030936.220 20692995.660 10 0 59808 9900.00000 0 -13489198.928 10269258.273 19061450.140 10 0 59808 10800.00000 0 -15685549.613 10656925.002 17059772.171 10 0 59808 11700.00000 0 -17586263.873 11152443.818 14726726.158 10 0 59808 12600.00000 0 -19151491.378 11706761.052 12107539.306 10 0 59808 13500.00000 0 -20353247.189 12265469.202 9253030.820 10 0 59808 14400.00000 0 -21176389.035 12771257.207 6218629.241 10 0 59808 15300.00000 0 -21619069.088 13166500.129 3063296.636 10 0 59808 16200.00000 0 -21692641.098 13395878.346 -151619.529 10 0 59808 17100.00000 0 -21421026.690 13408914.576 -3363584.211 10 0 59808 18000.00000 0 -20839567.584 13162320.246 -6510098.260 10 0 59808 18900.00000 0 -19993412.465 12622050.500 -9529922.868 10 0 59808 19800.00000 0 -18935507.089 11764979.362 -12364280.152 10 0 59808 20700.00000 0 -17724273.184 10580122.763 -14958005.385 10 0 59808 21600.00000 0 -16421074.929 9069356.270 -17260627.605 10 0 59808 22500.00000 0 -15087580.740 7247595.951 -19227356.866 10 0 59808 23400.00000 0 -13783132.352 5142433.689 -20819958.447 10 0 59808 24300.00000 0 -12562232.582 2793241.327 -22007496.949 10 0 59808 25200.00000 0 -11472257.801 249780.484 -22766935.920 10 0 59808 26100.00000 0 -10551491.314 -2429624.263 -23083581.731 10 0 59808 27000.00000 0 -9827559.940 -5180272.978 -22951363.600 10 0 59808 27900.00000 0 -9316338.796 -7933547.897 -22372944.907 10 0 59808 28800.00000 0 -9021369.393 -10619538.778 -21359664.246 10 0 59808 29700.00000 0 -8933814.363 -13169727.251 -19931307.874 10 0 59808 30600.00000 0 -9032949.561 -15519619.000 -18115718.410 10 0 59808 31500.00000 0 -9287171.627 -17611214.786 -15948247.727 10 0 59808 32400.00000 0 -9655477.529 -19395218.296 -13471064.904 10 0 59808 33300.00000 0 -10089352.765 -20832889.749 -10732332.781 10 0 59808 34200.00000 0 -10534987.837 -21897469.019 -7785269.335 10 0 59808 35100.00000 0 -10935728.871 -22575110.073 -4687112.158 10 0 59808 36000.00000 0 -11234658.475 -22865288.942 -1498006.262 10 0 59808 36900.00000 0 -11377197.589 -22780669.437 1720163.009 10 0 59808 37800.00000 0 -11313618.235 -22346433.492 4904969.236 10 0 59808 38700.00000 0 -11001360.973 -21599105.368 7994653.052 10 0 59808 39600.00000 0 -10407059.174 -20584919.957 10929315.691 10 0 59808 40500.00000 0 -9508184.588 -19357804.379 13652075.007 10 0 59808 41400.00000 0 -8294244.608 -17977057.940 16110161.962 10 0 59808 42300.00000 0 -6767480.450 -16504827.885 18255936.738 10 0 59808 43200.00000 0 -4943036.185 -15003486.538 20047805.512 10 0 59808 44100.00000 0 -2848590.542 -13533019.264 21451020.858 10 0 59808 45000.00000 0 -523465.653 -12148531.975 22438350.976 10 0 59808 45900.00000 0 1982751.603 -10897981.695 22990605.466 10 0 59808 46800.00000 0 4612019.939 -9820224.351 23097007.939 10 0 59808 47700.00000 0 7300012.046 -8943460.750 22755408.423 10 0 59808 48600.00000 0 9978552.745 -8284145.231 21972331.368 10 0 59808 49500.00000 0 12578227.224 -7846402.335 20762857.844 10 0 59808 50400.00000 0 15031052.385 -7621975.875 19150343.491 10 0 59808 51300.00000 0 17273101.380 -7590712.676 17165976.670 10 0 59808 52200.00000 0 19246972.930 -7721560.964 14848184.245 10 0 59808 53100.00000 0 20904002.855 -7974041.799 12241895.419 10 0 59808 54000.00000 0 22206125.623 -8300131.895 9397676.868 10 0 59808 54900.00000 0 23127307.905 -8646478.570 6370755.161 10 0 59808 55800.00000 0 23654493.635 -8956853.212 3219945.080 10 0 59808 56700.00000 0 23788020.557 -9174739.117 6504.552 10 0 59808 57600.00000 0 23541490.355 -9245943.430 -3207061.257 10 0 59808 58500.00000 0 22941097.575 -9121121.569 -6358222.692 10 0 59808 59400.00000 0 22024445.659 -8758105.915 -9385650.578 10 0 59808 60300.00000 0 20838900.177 -8123938.666 -12230418.559 10 0 59808 61200.00000 0 19439549.181 -7196521.340 -14837158.301 10 0 59808 62100.00000 0 17886857.278 -5965809.648 -17155144.193 10 0 59808 63000.00000 0 16244112.980 -4434501.861 -19139285.741 10 0 59808 63900.00000 0 14574777.499 -2618190.468 -20751007.827 10 0 59808 64800.00000 0 12939847.082 -544969.645 -21959001.620 10 0 59808 65700.00000 0 11395340.037 1745485.868 -22739831.640 10 0 59808 66600.00000 0 9990014.024 4203332.473 -23078387.509 10 0 59808 67500.00000 0 8763409.064 6770401.532 -22968172.155 10 0 59808 68400.00000 0 7744297.628 9382398.706 -22411421.437 10 0 59808 69300.00000 0 6949605.839 11971367.382 -21419053.466 10 0 59808 70200.00000 0 6383849.777 14468313.905 -20010449.167 10 0 59808 71100.00000 0 6039109.059 16805885.668 -18213068.742 10 0 59808 72000.00000 0 5895537.372 18920990.903 -16061911.876 10 0 59808 72900.00000 0 5922386.978 20757251.619 -13598832.397 10 0 59808 73800.00000 0 6079502.714 22267188.139 -10871720.831 10 0 59808 74700.00000 0 6319221.373 23414044.805 -7933570.953 10 0 59808 75600.00000 0 6588595.358 24173181.592 -4841448.531 10 0 59808 76500.00000 0 6831845.983 24532974.436 -1655382.399 10 0 59808 77400.00000 0 6992942.304 24495187.632 1562800.424 10 0 59808 78300.00000 0 7018196.121 24074803.777 4750672.875 10 0 59808 79200.00000 0 6858763.336 23299319.354 7846416.005 10 0 59808 80100.00000 0 6472945.872 22207536.318 10790013.679 10 0 59808 81000.00000 0 5828196.893 20847900.976 13524410.876 10 0 59808 81900.00000 0 4902744.554 19276460.165 15996613.520 10 0 59808 82800.00000 0 3686765.587 17554520.448 18158708.944 10 0 59808 83700.00000 0 2183058.838 15746108.145 19968787.918 10 0 59808 84600.00000 0 407189.580 13915335.935 21391751.111 10 0 59808 85500.00000 0 -1612902.488 12123785.495 22399985.060 99